Tracking 28356 objects as of 8-Dec-2023
HD Live streaming from Space Station
objects crossing your sky now

SL-12 R/B(2)

Track SL-12 R/B(2) now!


NORAD ID: 28256
Int'l Code: 2004-010F
Perigee: 35,730.0 km
Apogee: 35,945.9 km
Inclination: 12.6 °
Period: 1,438.4 minutes
Semi major axis: 42208 km
RCS: 0.003 m2 (small)
Launch date: March 27, 2004
Source: Commonwealth of Independent States (former USSR) (CIS)
Launch site: TYURATAM MISSILE AND SPACE COMPLEX (TTMTR)

Note: This is a ROCKET BODY
Your satellite tracking list
Your tracking list is empty




NASA's NSSDC Master Catalog

Two Line Element Set (TLE):
1 28256U 04010F   23341.77620406  .00000134  00000-0  00000+0 0  9990
2 28256  12.6291  28.0185 0025583 353.2217   3.3466  1.00114275 71490
Source of the keplerian elements: AFSPC